{"data":{"norad_id":59672,"epoch":"2026-09-21T14:20:30.719328Z","epoch_age_seconds":76414,"freshness":"FRESH","line1":"1 59672U 24084U   26264.59757777  .00000783  00000+0  37978-4 0  9996","line2":"2 59672  43.0031  12.0441 0000969 267.5908  92.4833 15.27581755134378","mean_motion":15.27581755,"eccentricity":9.69e-5,"inclination_deg":43.0031,"raan_deg":12.0441,"arg_perigee_deg":267.5908,"mean_anomaly_deg":92.4833,"bstar":3.7978e-5,"rev_number":13437,"period_min":94.266640412971,"perigee_km":482.37899251984,"apogee_km":483.70868936681,"semimajor_km":6861.1808409433,"source":"CELESTRAK","updated_at":"2026-09-22T09:00:49.029581Z"}}